Regional Weather Roundup
Issued by NWS

Home | Current Version | Previous Version | Graphics & Text | Print | Product List | Glossary On
Versions: 1 2 3 4 5 6 7 8 9 10 11 12 13 14 15 16 17 18 19 20 21 22 23 24 25 26 27 28 29 30 31 32 33 34 35 36 37 38 39 40 41 42 43 44 45 46 47 48 49 50
901
ASUS43 KBIS 230202
RWRND

NORTH DAKOTA REGIONAL WEATHER ROUNDUP
NATIONAL WEATHER SERVICE BISMARCK ND
800 PM CST WED FEB 22 2017

NOTE: "FAIR" INDICATES FEW OR NO CLOUDS BELOW 12,000 FEET WITH NO
SIGNIFICANT WEATHER AND/OR OBSTRUCTIONS TO VISIBILITY.


NDZ001>003-009>011-017-230300-
NORTHWEST NORTH DAKOTA

CITY           SKY/WX    TMP DP  RH WIND       PRES   REMARKS
WILLISTON      CLOUDY    28  25  88 NW6       30.00R
MINOT          FAIR      31  25  78 W8        29.96R
MINOT AFB      PTCLDY    26  23  89 W9        29.95R WCI  17
$$

NDZ018>021-031>035-040>046-230300-
SOUTHWEST NORTH DAKOTA

CITY           SKY/WX    TMP DP  RH WIND       PRES   REMARKS
BISMARCK       CLOUDY    34  27  75 N9        29.97R
DICKINSON      CLOUDY    28  24  85 N5        29.94R
GARRISON         N/A     25  23  92 NW7       29.96R WCI  17
HETTINGER ARPT FLURRIES  30  27  88 N8        29.95S
$$

NDZ004>008-012>016-024-026-027-054-230300-
NORTHEAST NORTH DAKOTA

CITY           SKY/WX    TMP DP  RH WIND       PRES   REMARKS
GRAND FORKS    PTCLDY    32  24  72 N10       29.91R
GRND FRKS AFB  CLEAR     31  26  80 N12       29.91S
DEVILS LAKE    CLOUDY    30  26  85 NW8       29.93S
$$

NDZ022-023-025-028>030-036>039-047>053-230300-
SOUTHEAST NORTH DAKOTA

CITY           SKY/WX    TMP DP  RH WIND       PRES   REMARKS
FARGO          CLOUDY    34  29  82 N15       29.88R
JAMESTOWN      FAIR      30  25  81 N9        29.92R
$$





USA.gov is the U.S. government's official web portal to all federal, state and local government web resources and services.